Regional Weather Roundup
Issued by NWS Green Bay, WI

Home | Current Version | Previous Version | Graphics & Text | Print | Product List | Glossary Off
Versions: 1 2 3 4 5 6 7 8 9 10 11 12 13 14 15 16 17 18 19 20 21 22 23 24 25 26 27 28 29 30 31 32 33 34 35 36 37 38 39 40 41 42 43 44 45 46 47 48 49 50

000
ASUS43 KGRB 160810
RWRGRB

NORTH-CENTRAL AND NORTHEAST WISCONSIN REGIONAL WEATHER ROUNDUP
NATIONAL WEATHER SERVICE GREEN BAY WI
300 AM CDT TUE SEP 16 2014

WIZ005-009-010>012-018-019-160900-
NORTH CENTRAL WISCONSIN

CITY           SKY/WX    TMP DP  RH WIND       PRES   REMARKS
IRONWOOD       CLEAR     39  36  87 SW7       30.11F
MANITOWISH WTR FOG       31  31 100 CALM      30.14F VSB 3/4
ARBOR VITAE    CLEAR     37  34  91 CALM      30.15S
EAGLE RIVER    CLEAR     34  34 100 CALM      30.14F
LAND O LAKES   CLEAR     30  30  99 CALM      30.15S
RHINELANDER    CLEAR     34  32  92 W6        30.16F
PHILLIPS       CLEAR     34  33  96 CALM      30.16S
ANTIGO         CLEAR     34  34  99 CALM      30.17S
TOMAHAWK       CLEAR     31  30  96 CALM      30.17S
MERRILL        PTCLDY    33  33  99 CALM      30.18S
$$

WIZ013-073-160900-
NORTHEAST WISCONSIN

CITY           SKY/WX    TMP DP  RH WIND       PRES   REMARKS
IRON MOUNTAIN  CLEAR     38  34  85 CALM      30.13S
MARINETTE      CLEAR     41  37  87 CALM      30.15S
OCONTO         CLEAR     38  38 100 CALM      30.17S
$$

WIZ017-030-035>037-045-160900-
CENTRAL WISCONSIN

CITY           SKY/WX    TMP DP  RH WIND       PRES   REMARKS
MEDFORD        CLEAR     35  34  96 CALM      30.18S
WAUSAU         CLEAR     40  38  93 NW3       30.17S
MOSINEE        CLEAR     37  37 100 W5        30.19S
MARSHFIELD     CLEAR     38  36  92 W3        30.19S
WISC RAPIDS    CLEAR     37  36  96 CALM      30.21S
STEVENS POINT  CLEAR     33  32  96 CALM      30.20R
WAUPACA        CLEAR     41  40  95 CALM      30.19F
SHAWANO        CLEAR     42  39  91 W3        30.18S
CLINTONVILLE   CLEAR     39  37  93 CALM      30.18S
$$

WIZ038-039-048-051-160900-
FOX VALLEY

CITY           SKY/WX    TMP DP  RH WIND       PRES   REMARKS
NWS GREEN BAY  CLEAR     40  39  97 W3        30.18S
APPLETON       CLEAR     41  39  93 W8        30.18F
OSHKOSH        CLEAR     44  41  89 W6        30.19R
FOND DU LAC    CLEAR     44  40  85 W6        30.19S
$$

WIZ022-050-052-160900-
EAST CENTRAL WISCONSIN

CITY           SKY/WX    TMP DP  RH WIND       PRES   REMARKS
STURGEON BAY   CLEAR     45  39  81 CALM      30.16S
MANITOWOC      CLEAR     45  42  89 NW5       30.17S
SHEBOYGAN      CLEAR     45  41  86 NW3       30.18R
$$

LMZ563-521-522-541>543-160900-
LAKESHORE

STATION/POSITION TIME  TEMP    WIND        PRES    VSBY  WAVE
                       AIR SEA DIR/SP/G                  HT/PER
                 (UTC) (F)     (DEG/KT/KT) (MB)    (MI)  (FT/S)
SHEBOYGAN LKSHOR 0800   49 47  300/  9/ 11 1022.2R
KEWAUNEE LKSHORE 0800   45     300/  3/  5 1020.3F
NORTHPORT PIER   0800   52     290/  4/  7 1020.7R
N MID LAKE BUOY  0800   55 58  290/ 10/ 12 1020.3F         1/ 3
S GREEN BAY BUOY 0700   52     VRB 10/ 14  1022.2R
CHAMBERS ISLAND  0800   49     240/  2/  5 1021.0S
MENOMINEE LKSHOR 0800   47     260/  5/  8 1021.6S
$$


USA.gov is the U.S. government's official web portal to all federal, state and local government web resources and services.